Powrót do katalogu

STARLINK-2501

AktywnyŁącznośćVLEO
NORAD 48330·PAYLOAD·🇺🇸 United States

Wystrzelony Apr 29, 2021 z Cape Canaveral Space Force Station

Loading…

Następne Przeloty (najbliższe 24 godziny)

TLE

ŚwieżeSource: CelesTrak SupGP

Epoka: Sep 14, 2026, 19:55 UTC

1 48330C 21036BG  26257.83034722 -.00025650  00000+0 -82485-3 0  2577
2 48330  53.1586 301.2583 0001157  82.3547 134.5105 15.31713916    10

Śledź STARLINK-2501 w czasie rzeczywistym z AllMySat

Download on the App Store